• In Belarus
  • List of Countries
  • For 7 days
  • Water Temperature
  • Satellite Maps
  • Weather Map
  • Weather Widgets
  • user-avatar
    Login

    Hourly Weather Uyna

    Today, 15 October, Monday

    Time Temperature Precipitation Wind Pressure Humidity
    00:00 +22°C° 0 mm 0 mps 738 mmHg 98%
    01:00 +22°C° 0 mm 0 mps 738 mmHg 98%
    02:00 +22°C° 0 mm 0 mps 738 mmHg 99%
    03:00 +22°C° 0 mm 0 mps 737 mmHg 99%
    04:00 +22°C° 0 mm 0 mps 738 mmHg 99%
    05:00 +22°C° 0 mm 0 mps 738 mmHg 98%
    06:00 +22°C° 0 mm 0 mps 738 mmHg 98%
    07:00 +24°C° 0 mm 0 mps 738 mmHg 90%
    08:00 +28°C° 0 mm 1 mps 738 mmHg 82%
    09:00 +30°C° 0 mm 1 mps 739 mmHg 73%
    10:00 +31°C° 0.4 mm 1 mps 738 mmHg 71%
    11:00 +32°C° 0.4 mm 1 mps 738 mmHg 69%
    12:00 +33°C° 0.4 mm 1 mps 737 mmHg 67%
    13:00 +32°C° 2.2 mm 1 mps 737 mmHg 76%
    14:00 +31°C° 2.2 mm 1 mps 736 mmHg 85%
    15:00 +30°C° 2.2 mm 1 mps 735 mmHg 94%
    16:00 +28°C° 2.5 mm 1 mps 736 mmHg 95%
    17:00 +27°C° 2.5 mm 1 mps 736 mmHg 96%
    18:00 +24°C° 2.5 mm 0 mps 737 mmHg 98%
    19:00 +23°C° 0.4 mm 0 mps 737 mmHg 98%
    20:00 +23°C° 0.4 mm 0 mps 738 mmHg 98%
    21:00 +23°C° 0.4 mm 0 mps 738 mmHg 98%
    22:00 +23°C° 0.3 mm 0 mps 738 mmHg 99%
    23:00 +23°C° 0.3 mm 0 mps 738 mmHg 99%

    Tomorrow, 16 October, Tuesday

    Time Temperature Precipitation Wind Pressure Humidity
    00:00 +22°C° 0.3 mm 0 mps 738 mmHg 99%
    01:00 +22°C° 0.6 mm 0 mps 738 mmHg 99%
    02:00 +22°C° 0.6 mm 0 mps 737 mmHg 99%
    03:00 +22°C° 0.6 mm 0 mps 737 mmHg 99%
    04:00 +22°C° 1.1 mm 0 mps 737 mmHg 99%
    05:00 +22°C° 1.1 mm 0 mps 738 mmHg 99%
    06:00 +22°C° 1.1 mm 0 mps 738 mmHg 99%
    07:00 +24°C° 0.2 mm 0 mps 738 mmHg 94%
    08:00 +25°C° 0.2 mm 0 mps 739 mmHg 90%
    09:00 +26°C° 0.2 mm 0 mps 739 mmHg 85%
    10:00 +29°C° 0.7 mm 1 mps 739 mmHg 87%
    11:00 +29°C° 0.7 mm 1 mps 738 mmHg 88%
    12:00 +29°C° 0.7 mm 1 mps 738 mmHg 89%
    13:00 +29°C° 1.6 mm 1 mps 737 mmHg 92%
    14:00 +28°C° 1.6 mm 1 mps 737 mmHg 94%
    15:00 +27°C° 1.6 mm 1 mps 736 mmHg 97%
    16:00 +27°C° 0.6 mm 1 mps 737 mmHg 98%
    17:00 +24°C° 0.6 mm 0 mps 737 mmHg 98%
    18:00 +23°C° 0.6 mm 0 mps 737 mmHg 99%
    19:00 +23°C° 0.1 mm 0 mps 738 mmHg 99%
    20:00 +23°C° 0.1 mm 0 mps 739 mmHg 99%
    21:00 +23°C° 0.1 mm 0 mps 739 mmHg 99%
    22:00 +23°C° 0 mm 0 mps 739 mmHg 99%
    23:00 +22°C° 0 mm 0 mps 739 mmHg 99%

    Day after tomorrow, 17 October, Wednesday

    Time Temperature Precipitation Wind Pressure Humidity
    00:00 +22°C° 0 mm 0 mps 739 mmHg 99%
    01:00 +22°C° 0 mm 0 mps 738 mmHg 99%
    02:00 +22°C° 0 mm 0 mps 738 mmHg 99%
    03:00 +22°C° 0 mm 0 mps 738 mmHg 99%
    04:00 +22°C° 0 mm 0 mps 738 mmHg 99%
    05:00 +22°C° 0 mm 0 mps 738 mmHg 99%
    06:00 +21°C° 0 mm 0 mps 738 mmHg 99%
    07:00 +23°C° 0 mm 0 mps 739 mmHg 93%
    08:00 +25°C° 0 mm 0 mps 739 mmHg 87%
    09:00 +26°C° 0 mm 0 mps 740 mmHg 82%
    10:00 +29°C° 0.7 mm 1 mps 739 mmHg 82%
    11:00 +30°C° 0.7 mm 1 mps 739 mmHg 82%
    12:00 +30°C° 0.7 mm 1 mps 738 mmHg 82%
    13:00 +30°C° 1.8 mm 1 mps 737 mmHg 86%
    14:00 +29°C° 1.8 mm 1 mps 737 mmHg 90%
    15:00 +28°C° 1.8 mm 1 mps 736 mmHg 95%
    16:00 +27°C° 1.2 mm 1 mps 737 mmHg 96%
    17:00 +26°C° 1.2 mm 1 mps 737 mmHg 97%
    18:00 +23°C° 1.2 mm 0 mps 738 mmHg 98%
    19:00 +23°C° 0.7 mm 0 mps 738 mmHg 98%
    20:00 +23°C° 0.7 mm 0 mps 739 mmHg 98%
    21:00 +22°C° 0.7 mm 0 mps 740 mmHg 99%
    22:00 +22°C° 0.1 mm 0 mps 739 mmHg 99%
    23:00 +22°C° 0.1 mm 0 mps 739 mmHg 99%

    18 October, Thursday

    Time Temperature Precipitation Wind Pressure Humidity
    00:00 +22°C° 0.1 mm 0 mps 739 mmHg 99%
    01:00 +22°C° 0 mm 0 mps 738 mmHg 99%
    02:00 +22°C° 0 mm 0 mps 738 mmHg 99%
    03:00 +22°C° 0 mm 0 mps 738 mmHg 99%
    04:00 +22°C° 0 mm 0 mps 738 mmHg 99%
    05:00 +22°C° 0 mm 0 mps 738 mmHg 99%
    06:00 +22°C° 0 mm 0 mps 738 mmHg 99%
    07:00 +25°C° 0.4 mm 1 mps 739 mmHg 97%
    08:00 +26°C° 0.4 mm 1 mps 740 mmHg 96%
    09:00 +27°C° 0.4 mm 1 mps 740 mmHg 95%
    10:00 +27°C° 0.9 mm 1 mps 740 mmHg 95%
    11:00 +27°C° 0.9 mm 1 mps 739 mmHg 95%
    12:00 +27°C° 0.9 mm 1 mps 739 mmHg 95%
    13:00 +27°C° 0.8 mm 1 mps 738 mmHg 96%
    14:00 +26°C° 0.8 mm 1 mps 738 mmHg 97%
    15:00 +26°C° 0.8 mm 1 mps 737 mmHg 97%
    16:00 +24°C° 0.1 mm 0 mps 738 mmHg 98%
    17:00 +23°C° 0.1 mm 0 mps 738 mmHg 98%
    18:00 +23°C° 0.1 mm 0 mps 739 mmHg 99%
    19:00 +22°C° 0 mm 0 mps 739 mmHg 99%
    20:00 +22°C° 0 mm 0 mps 740 mmHg 99%
    21:00 +22°C° 0 mm 0 mps 740 mmHg 99%
    22:00 +22°C° 0.2 mm 0 mps 740 mmHg 99%
    23:00 +22°C° 0.2 mm 0 mps 740 mmHg 99%

    19 October, Friday

    Time Temperature Precipitation Wind Pressure Humidity
    00:00 +22°C° 0.2 mm 0 mps 739 mmHg 99%
    01:00 +21°C° 0.1 mm 0 mps 739 mmHg 99%
    02:00 +21°C° 0.1 mm 0 mps 739 mmHg 99%
    03:00 +21°C° 0.1 mm 0 mps 738 mmHg 99%
    04:00 +21°C° 0.1 mm 0 mps 739 mmHg 99%
    05:00 +21°C° 0.1 mm 0 mps 739 mmHg 99%
    06:00 +21°C° 0.1 mm 0 mps 740 mmHg 99%
    07:00 +23°C° 0.1 mm 0 mps 740 mmHg 92%
    08:00 +27°C° 0.1 mm 1 mps 740 mmHg 84%
    09:00 +29°C° 0.1 mm 1 mps 741 mmHg 77%
    10:00 +30°C° 0.2 mm 1 mps 740 mmHg 75%
    11:00 +31°C° 0.2 mm 1 mps 739 mmHg 72%
    12:00 +32°C° 0.2 mm 1 mps 738 mmHg 70%
    13:00 +31°C° 1 mm 1 mps 738 mmHg 77%
    14:00 +30°C° 1 mm 1 mps 737 mmHg 84%
    15:00 +29°C° 1 mm 1 mps 737 mmHg 91%
    16:00 +28°C° 0.8 mm 1 mps 737 mmHg 94%
    17:00 +27°C° 0.8 mm 1 mps 738 mmHg 96%
    18:00 +26°C° 0.8 mm 1 mps 738 mmHg 98%
    19:00 +23°C° 0.1 mm 0 mps 739 mmHg 98%
    20:00 +23°C° 0.1 mm 0 mps 739 mmHg 99%
    21:00 +23°C° 0.1 mm 0 mps 740 mmHg 99%
    22:00 +23°C° 0 mm 0 mps 739 mmHg 99%
    23:00 +22°C° 0 mm 0 mps 739 mmHg 99%

    20 October, Saturday

    Time Temperature Precipitation Wind Pressure Humidity
    00:00 +22°C° 0 mm 0 mps 739 mmHg 99%
    01:00 +22°C° 0.1 mm 0 mps 738 mmHg 99%
    02:00 +22°C° 0.1 mm 0 mps 738 mmHg 99%
    03:00 +22°C° 0.1 mm 0 mps 738 mmHg 99%
    04:00 +22°C° 0 mm 0 mps 738 mmHg 99%
    05:00 +22°C° 0 mm 0 mps 739 mmHg 99%
    06:00 +22°C° 0 mm 0 mps 739 mmHg 99%
    07:00 +23°C° 0.1 mm 0 mps 739 mmHg 94%
    08:00 +27°C° 0.1 mm 1 mps 740 mmHg 89%
    09:00 +28°C° 0.1 mm 1 mps 740 mmHg 85%
    10:00 +28°C° 0.5 mm 1 mps 739 mmHg 85%
    11:00 +29°C° 0.5 mm 1 mps 739 mmHg 85%
    12:00 +29°C° 0.5 mm 1 mps 738 mmHg 85%
    13:00 +29°C° 0.5 mm 1 mps 737 mmHg 87%
    14:00 +28°C° 0.5 mm 1 mps 737 mmHg 90%
    15:00 +28°C° 0.5 mm 1 mps 736 mmHg 92%
    16:00 +27°C° 0.5 mm 1 mps 737 mmHg 94%
    17:00 +26°C° 0.5 mm 1 mps 737 mmHg 96%
    18:00 +23°C° 0.5 mm 0 mps 738 mmHg 98%
    19:00 +23°C° 0.1 mm 0 mps 738 mmHg 99%
    20:00 +23°C° 0.1 mm 0 mps 739 mmHg 99%
    21:00 +22°C° 0.1 mm 0 mps 739 mmHg 99%
    22:00 +22°C° 0 mm 0 mps 739 mmHg 99%
    23:00 +22°C° 0 mm 0 mps 739 mmHg 99%
    Show more